TimeAEST,TemperatureF,Dew PointF,Humidity,Sea Level PressureIn,VisibilityMPH,Wind Direction,Wind SpeedMPH,Gust SpeedMPH,PrecipitationIn,Events,Conditions,WindDirDegrees,DateUTC
12:00 AM,75,71,82,29.94,,SSE,10.4,,,,,150,2013-03-28 14:00:00
12:00 AM,75.2,69.8,83,29.92,6.2,SSE,10.4,-,N/A,,Partly Cloudy,150,2013-03-28 14:00:00
12:30 AM,77.0,69.8,78,29.92,6.2,SSE,9.2,-,N/A,,Partly Cloudy,160,2013-03-28 14:30:00
1:00 AM,76,70,76,29.93,,South,11.5,,,,,180,2013-03-28 15:00:00
1:00 AM,77.0,69.8,78,29.92,6.2,South,11.5,-,N/A,,Partly Cloudy,180,2013-03-28 15:00:00
1:30 AM,75.2,69.8,83,29.89,6.2,SSE,10.4,-,N/A,,Partly Cloudy,150,2013-03-28 15:30:00
1:54 AM,73.4,71.6,94,29.92,2.5,SE,13.8,-,N/A,Rain,Light Rain Showers,130,2013-03-28 15:54:00
2:00 AM,73.4,73.4,100,29.89,3.7,SE,12.7,-,N/A,Rain,Light Rain Showers,140,2013-03-28 16:00:00
2:13 AM,73.4,71.6,94,29.89,6.2,South,9.2,-,N/A,,Scattered Clouds,170,2013-03-28 16:13:00
3:00 AM,74,71,86,29.89,,South,12.7,,,,,170,2013-03-28 17:00:00
3:00 AM,75.2,69.8,83,29.89,6.2,South,12.7,-,N/A,,Partly Cloudy,170,2013-03-28 17:00:00
3:30 AM,75.2,69.8,83,29.89,6.2,South,10.4,-,N/A,,Partly Cloudy,170,2013-03-28 17:30:00
4:00 AM,73,71,89,29.89,,SE,9.2,,,,,130,2013-03-28 18:00:00
4:00 AM,73.4,69.8,88,29.89,6.2,SE,9.2,-,N/A,,Partly Cloudy,130,2013-03-28 18:00:00
4:30 AM,73.4,69.8,88,29.86,6.2,SE,10.4,-,N/A,,Scattered Clouds,140,2013-03-28 18:30:00
4:47 AM,73.4,69.8,88,29.89,4.3,SE,11.5,-,N/A,Rain,Light Rain Showers,140,2013-03-28 18:47:00
5:00 AM,73.4,69.8,88,29.86,6.2,SSE,11.5,-,N/A,,Scattered Clouds,150,2013-03-28 19:00:00
5:30 AM,73.4,69.8,88,29.89,6.2,South,12.7,-,N/A,,Scattered Clouds,170,2013-03-28 19:30:00
5:58 AM,75.2,69.8,83,29.89,3.7,South,11.5,-,N/A,Rain,Light Rain Showers,180,2013-03-28 19:58:00
6:00 AM,73,70,89,29.89,4,South,12.7,,,Rain,Light Rain Showers,180,2013-03-28 20:00:00
6:00 AM,73.4,69.8,88,29.89,3.7,South,12.7,-,N/A,Rain,Light Rain Showers,170,2013-03-28 20:00:00
6:15 AM,73.4,69.8,88,29.89,6.2,South,10.4,-,N/A,,Mostly Cloudy,190,2013-03-28 20:15:00
6:19 AM,75.2,69.8,83,29.89,6.2,South,10.4,-,N/A,Rain,Light Rain Showers,190,2013-03-28 20:19:00
6:30 AM,75.2,69.8,83,29.89,6.2,SSW,6.9,-,N/A,,Mostly Cloudy,200,2013-03-28 20:30:00
7:00 AM,74,70,82,29.90,,South,8.1,,,,,170,2013-03-28 21:00:00
7:00 AM,73.4,69.8,88,29.89,6.2,South,8.1,-,N/A,,Mostly Cloudy,170,2013-03-28 21:00:00
7:30 AM,75.2,69.8,83,29.89,6.2,South,15.0,-,N/A,,Scattered Clouds,190,2013-03-28 21:30:00
8:00 AM,75.2,71.6,89,29.89,6.2,SSE,8.1,-,N/A,,Mostly Cloudy,160,2013-03-28 22:00:00
8:30 AM,77.0,71.6,83,29.92,6.2,South,8.1,-,N/A,,Scattered Clouds,180,2013-03-28 22:30:00
9:00 AM,78,72,77,29.92,16,South,10.4,,,,Partly Cloudy,170,2013-03-28 23:00:00
9:00 AM,77.0,71.6,83,29.92,6.2,South,10.4,-,N/A,,Scattered Clouds,170,2013-03-28 23:00:00
9:30 AM,78.8,73.4,83,29.92,6.2,SSE,11.5,-,N/A,,Scattered Clouds,160,2013-03-28 23:30:00
10:00 AM,81,72,68,29.92,,South,10.4,,,,,170,2013-03-29 00:00:00
10:00 AM,80.6,71.6,74,29.89,6.2,South,10.4,-,N/A,,Scattered Clouds,170,2013-03-29 00:00:00
10:17 AM,80.6,71.6,74,29.89,6.2,SSE,10.4,-,N/A,Rain,Light Rain Showers,160,2013-03-29 00:17:00
10:30 AM,78.8,73.4,83,29.89,6.2,SSE,11.5,-,N/A,,Scattered Clouds,150,2013-03-29 00:30:00
11:00 AM,80.6,71.6,74,29.89,6.2,SE,13.8,-,N/A,,Scattered Clouds,140,2013-03-29 01:00:00
11:30 AM,82.4,71.6,70,29.89,6.2,SSE,17.3,-,N/A,,Mostly Cloudy,150,2013-03-29 01:30:00
12:00 PM,82,71,62,29.89,12,SE,17.3,,,,Mostly Cloudy,140,2013-03-29 02:00:00
12:00 PM,82.4,71.6,70,29.89,6.2,SE,17.3,-,N/A,,Mostly Cloudy,130,2013-03-29 02:00:00
12:30 PM,80.6,71.6,74,29.86,6.2,SSE,12.7,-,N/A,Rain,Light Rain Showers,160,2013-03-29 02:30:00
1:00 PM,83,71,59,29.87,,SSE,15.0,,,,,150,2013-03-29 03:00:00
1:00 PM,82.4,71.6,70,29.86,6.2,SSE,15.0,-,N/A,,Scattered Clouds,150,2013-03-29 03:00:00
1:30 PM,84.2,69.8,62,29.86,6.2,SE,16.1,-,N/A,,Scattered Clouds,130,2013-03-29 03:30:00
2:00 PM,84.2,68.0,58,29.83,6.2,ESE,16.1,-,N/A,,Partly Cloudy,120,2013-03-29 04:00:00
2:30 PM,84.2,66.2,55,29.83,6.2,ESE,17.3,-,N/A,,Partly Cloudy,120,2013-03-29 04:30:00
3:00 PM,85,66,43,29.84,19,SE,15.0,,,,Partly Cloudy,130,2013-03-29 05:00:00
3:00 PM,84.2,66.2,55,29.83,6.2,SE,15.0,-,N/A,,Partly Cloudy,130,2013-03-29 05:00:00
3:30 PM,84.2,62.6,48,29.83,6.2,ESE,15.0,-,N/A,,Partly Cloudy,120,2013-03-29 05:30:00
4:00 PM,85,65,41,29.85,,ESE,12.7,,,,,120,2013-03-29 06:00:00
4:00 PM,84.2,64.4,51,29.83,6.2,ESE,12.7,-,N/A,,Partly Cloudy,120,2013-03-29 06:00:00
4:30 PM,84.2,68.0,58,29.83,6.2,SE,15.0,-,N/A,,Partly Cloudy,130,2013-03-29 06:30:00
5:00 PM,82.4,68.0,62,29.86,6.2,SE,13.8,-,N/A,,Partly Cloudy,130,2013-03-29 07:00:00
5:30 PM,80.6,69.8,70,29.86,6.2,SE,17.3,-,N/A,,Partly Cloudy,130,2013-03-29 07:30:00
6:00 PM,79,70,67,29.86,,SSE,16.1,,,,,150,2013-03-29 08:00:00
6:00 PM,78.8,69.8,74,29.86,6.2,SSE,16.1,-,N/A,,Scattered Clouds,150,2013-03-29 08:00:00
6:30 PM,78.8,69.8,74,29.86,6.2,SE,15.0,-,N/A,,Scattered Clouds,140,2013-03-29 08:30:00
7:00 PM,79,69,64,29.89,,SSE,12.7,,,,,150,2013-03-29 09:00:00
7:00 PM,78.8,69.8,74,29.89,6.2,SSE,12.7,-,N/A,,Mostly Cloudy,150,2013-03-29 09:00:00
7:30 PM,78.8,69.8,74,29.89,6.2,South,6.9,-,N/A,,Mostly Cloudy,170,2013-03-29 09:30:00
8:00 PM,78.8,69.8,74,29.89,6.2,SSW,8.1,-,N/A,,Scattered Clouds,200,2013-03-29 10:00:00
8:30 PM,78.8,68.0,69,29.92,6.2,South,8.1,-,N/A,,Scattered Clouds,180,2013-03-29 10:30:00
9:00 PM,77,67,65,29.94,,South,9.2,,,,,180,2013-03-29 11:00:00
9:00 PM,77.0,68.0,74,29.92,6.2,South,9.2,-,N/A,,Partly Cloudy,180,2013-03-29 11:00:00
9:30 PM,77.0,68.0,74,29.92,6.2,South,6.9,-,N/A,,Partly Cloudy,170,2013-03-29 11:30:00
10:00 PM,76,68,69,29.96,,South,8.1,,,,,180,2013-03-29 12:00:00
10:00 PM,77.0,68.0,74,29.95,6.2,South,8.1,-,N/A,,Mostly Cloudy,180,2013-03-29 12:00:00
10:30 PM,75.2,68.0,78,29.95,6.2,SSE,6.9,-,N/A,,Mostly Cloudy,160,2013-03-29 12:30:00
11:00 PM,75.2,68.0,78,29.95,6.2,South,10.4,-,N/A,,Mostly Cloudy,190,2013-03-29 13:00:00
11:30 PM,75.2,69.8,83,29.92,6.2,SE,8.1,-,N/A,,Mostly Cloudy,140,2013-03-29 13:30:00